Date,TemperatureHighF,TemperatureAvgF,TemperatureLowF,DewpointHighF,DewpointAvgF,DewpointLowF,HumidityHigh,HumidityAvg,HumidityLow,PressureMaxIn,PressureMinIn,WindSpeedMaxMPH,WindSpeedAvgMPH,GustSpeedMaxMPH,PrecipitationSumIn
2012-1-25,64.8,53.2,46.0,50.0,48.0,45.1,99,84,55,30.38,29.91,2,0,5,0.00
2012-1-26,54.5,48.3,42.8,51.9,47.7,42.3,99,98,91,30.34,29.92,4,0,7,0.32
2012-1-27,62.6,50.8,38.3,43.5,32.0,13.1,99,52,24,30.20,30.10,7,3,14,0.00
2012-1-28,59.2,47.0,36.1,43.5,31.2,11.4,89,57,25,30.26,30.17,3,1,6,0.00
2012-1-29,66.2,51.5,43.0,38.9,32.4,20.1,78,51,17,30.23,30.05,5,1,11,0.00
2012-1-30,59.7,49.6,41.5,40.3,34.5,27.4,86,58,33,30.07,29.91,4,1,7,0.00
2012-1-31,60.1,48.4,38.8,43.0,38.2,32.8,86,69,40,30.08,29.95,7,1,11,0.00
2012-2-1,51.3,44.2,38.3,50.1,42.6,38.0,100,95,81,30.16,30.04,4,1,9,0.11
2012-2-2,64.6,49.3,34.9,63.2,24.6,9.1,99,44,18,30.13,29.91,8,2,14,0.00
2012-2-3,58.5,45.6,35.1,36.2,27.8,17.5,71,51,32,30.00,29.93,4,1,7,0.00
2012-2-4,60.4,48.0,41.0,33.8,28.0,23.5,67,47,26,30.06,29.99,4,2,9,0.00
2012-2-5,61.7,49.1,41.4,36.7,29.0,23.6,66,47,25,30.05,29.96,5,2,8,0.00
2012-2-6,62.8,50.4,40.6,34.8,26.7,21.3,60,41,21,29.98,29.77,6,2,10,0.00
2012-2-7,51.3,47.8,44.2,45.6,40.5,28.2,100,78,43,30.05,29.77,6,1,11,0.07
2012-2-8,61.9,49.9,40.3,48.3,44.2,39.5,100,83,48,30.17,30.05,5,1,11,0.00
2012-2-9,66.4,52.5,42.4,48.8,43.7,36.8,94,73,44,30.23,30.09,3,1,8,0.00
2012-2-10,60.8,50.3,44.1,49.5,44.3,38.2,100,81,56,30.13,29.98,3,1,7,0.11
2012-2-11,50.9,45.7,42.6,47.4,44.5,42.4,100,96,82,29.98,29.90,3,0,10,0.01
2012-2-12,54.9,45.1,38.5,45.1,42.0,38.2,100,90,61,29.95,29.85,2,1,8,0.26
2012-2-13,43.9,39.0,34.2,43.0,38.0,34.2,100,96,78,29.90,29.76,3,1,8,0.53
2012-2-14,50.7,41.1,31.3,42.7,37.7,31.0,100,88,70,29.96,29.85,3,1,11,0.01
2012-2-15,51.6,41.8,32.7,39.9,25.9,17.8,100,57,32,30.08,29.85,8,3,19,0.08
2012-2-16,60.3,47.8,33.3,35.4,23.8,12.4,66,41,21,30.15,30.07,8,2,17,0.00
2012-2-17,57.9,46.9,36.1,39.1,32.5,25.1,80,58,39,30.16,30.06,4,1,10,0.00
2012-2-18,52.0,43.5,34.9,45.8,38.1,32.1,95,82,64,30.09,29.94,4,1,9,0.00
2012-2-19,51.4,41.2,33.4,35.5,26.8,21.2,88,58,35,29.98,29.91,6,1,11,0.00
2012-2-20,50.9,43.6,37.8,40.6,36.5,27.8,95,77,58,30.10,29.97,5,2,11,0.00
2012-2-21,67.3,54.8,39.0,47.7,41.0,34.0,95,61,45,30.19,30.08,8,2,16,0.00
2012-2-22,66.6,56.4,45.7,44.4,38.6,33.2,68,52,29,30.20,30.00,9,2,22,0.00
2012-2-23,71.2,58.7,46.4,41.0,22.4,14.3,76,28,14,30.00,29.90,12,4,22,0.00
2012-2-24,69.3,55.9,45.7,45.1,34.7,17.9,68,46,23,30.04,29.91,5,2,10,0.00
2012-2-25,52.2,44.0,34.9,37.8,27.1,14.8,100,56,23,30.19,30.04,8,2,17,0.00
2012-2-26,51.8,42.7,33.8,26.3,15.9,0.5,63,35,21,30.06,29.74,7,1,11,0.00
2012-2-27,45.7,37.6,31.8,38.8,30.8,23.5,100,77,60,29.84,29.70,6,1,11,0.00
2012-2-28,47.3,38.2,30.9,36.1,32.2,27.8,93,79,63,30.08,29.83,4,2,12,0.01
2012-2-29,39.9,36.8,32.4,39.7,36.4,32.1,100,98,89,30.09,29.91,6,2,18,0.87
2012-3-1,39.7,35.4,32.4,39.5,35.2,32.1,100,99,97,30.13,30.04,3,1,11,0.84
2012-3-2,57.7,43.3,32.5,39.2,29.8,18.0,100,61,37,30.25,30.11,9,2,20,0.00
2012-3-3,63.5,48.0,33.8,43.4,36.3,27.8,86,66,35,30.27,30.18,3,1,8,0.00
2012-3-4,70.7,56.2,45.0,42.9,38.8,33.8,77,54,31,30.20,30.02,3,1,7,0.00
2012-3-5,68.9,56.0,44.8,40.9,36.0,25.3,72,49,26,30.03,29.82,4,2,8,0.00
2012-3-6,51.4,40.8,33.1,40.3,24.3,7.9,100,56,23,29.92,29.74,11,4,24,0.06
2012-3-7,55.0,43.9,30.7,27.1,11.9,-0.4,55,27,21,30.08,29.91,9,3,17,0.00
2012-3-8,63.0,49.7,36.1,35.4,25.4,14.7,64,41,22,30.24,30.07,4,1,10,0.00
2012-3-9,68.7,54.1,43.2,38.8,32.2,24.2,66,46,19,30.25,30.03,4,2,9,0.00
2012-3-10,63.7,52.0,42.6,45.6,32.3,21.0,91,52,20,30.03,29.86,4,2,9,0.00
2012-3-11,52.5,45.2,40.3,47.7,43.1,39.6,100,93,76,30.66,29.86,4,1,8,0.06
2012-3-12,51.1,45.1,40.1,40.8,37.5,32.7,87,75,65,29.93,29.82,3,1,9,0.00
2012-3-13,45.5,44.0,42.1,44.7,43.1,38.9,100,97,82,29.90,29.77,4,2,15,1.02
2012-3-14,50.0,47.4,45.5,49.7,47.0,44.7,99,98,97,30.03,29.87,4,1,12,1.59
2012-3-15,52.2,50.2,48.7,52.2,49.8,2.0,100,99,13,32.31,29.94,2,0,8,0.41
2012-3-16,48.9,46.9,39.4,48.7,46.6,39.1,100,99,97,29.94,29.58,5,2,27,2.94
2012-3-17,45.9,37.1,31.6,44.9,36.8,31.4,100,99,97,29.61,29.40,4,1,13,0.30
2012-3-18,41.0,33.3,31.1,40.4,32.9,-13.2,100,99,14,29.81,29.47,3,0,8,0.15
2012-3-19,44.1,37.2,30.9,40.1,35.8,30.5,100,95,81,29.99,29.81,3,1,6,0.04
2012-3-20,55.4,45.8,36.7,46.6,41.6,35.9,100,87,66,30.12,29.99,4,1,7,0.00
2012-3-21,64.4,55.2,45.0,55.3,50.9,44.2,100,86,71,30.11,29.93,3,1,8,0.00
2012-3-22,55.2,49.1,39.7,52.6,48.1,38.2,100,96,88,29.96,29.84,5,1,8,0.02
2012-3-23,57.6,44.9,30.2,41.6,36.6,30.0,100,75,50,30.01,29.84,4,1,9,0.00
2012-3-24,52.3,45.8,39.2,45.2,42.1,37.9,100,87,67,29.85,29.72,5,2,11,0.00
2012-3-25,48.0,41.2,34.9,47.1,40.7,34.8,100,98,92,29.81,29.67,3,1,7,0.26
2012-3-26,49.6,42.2,36.3,45.9,40.3,35.6,100,93,80,31.49,29.78,4,1,9,0.00
2012-3-27,51.8,44.8,41.7,46.8,43.3,41.5,100,95,82,29.98,29.85,4,2,15,0.54
2012-3-28,57.4,47.3,42.1,54.4,46.5,41.8,100,97,85,30.05,29.86,4,2,15,0.27
2012-3-29,57.6,48.3,40.3,52.4,46.7,40.0,100,95,78,30.06,29.99,4,1,8,0.05
2012-3-30,64.4,52.9,46.0,57.6,51.0,45.2,100,94,74,30.06,29.85,6,1,9,0.12
2012-3-31,51.3,43.9,37.6,50.9,43.6,37.3,100,99,96,29.89,29.65,5,2,17,0.84
2012-4-1,53.1,43.4,37.4,47.7,40.2,37.1,100,89,65,30.15,29.88,8,2,17,0.05
2012-4-2,43.2,39.5,36.3,38.8,36.3,34.8,100,89,74,30.12,30.04,5,2,10,0.00
2012-4-7,65.7,57.8,46.2,46.4,40.3,33.9,76,54,34,30.02,29.92,2,1,7,0.38
2012-4-8,72.0,56.7,44.4,50.9,40.2,28.5,81,56,32,29.99,29.93,5,2,10,0.00
2012-4-9,69.3,58.1,48.2,49.9,42.8,37.2,79,58,40,29.97,29.79,4,1,8,0.00
2012-4-10,57.4,49.6,43.0,52.0,45.1,36.7,100,85,69,29.84,29.72,3,1,8,0.00
2012-4-11,46.9,43.1,40.3,46.7,42.7,40.0,100,99,97,29.91,29.70,4,1,9,0.70
2012-4-12,45.3,40.7,37.2,44.4,40.5,13.1,100,99,97,29.94,29.77,6,2,14,1.77
2012-4-13,46.6,39.9,33.4,46.6,39.4,33.2,100,98,92,29.73,29.65,4,1,8,1.16
2012-4-14,57.0,47.8,34.5,52.4,45.4,34.3,100,92,80,30.02,29.73,6,2,15,0.00
2012-4-15,64.0,52.5,41.4,53.6,46.3,39.5,100,81,60,30.10,30.02,4,1,15,0.00
2012-4-16,68.4,56.0,44.8,51.3,45.0,41.3,90,69,42,30.11,27.06,4,2,11,0.00
2012-4-17,70.2,57.8,46.2,56.3,49.0,42.3,87,74,50,30.08,29.97,4,1,8,0.00
2012-4-18,67.3,58.1,46.9,53.9,49.2,45.2,100,74,51,30.06,29.98,5,1,10,0.00
2012-4-19,72.7,62.8,50.9,61.6,54.9,46.7,90,76,61,30.07,30.01,8,3,17,0.00
2012-4-20,79.9,70.0,57.2,66.9,60.1,53.0,96,71,57,30.03,29.95,4,1,8,0.00
2012-4-21,84.4,71.5,60.1,68.4,60.2,54.3,84,69,49,29.97,29.18,4,1,8,0.00
2012-4-22,86.2,73.3,61.5,67.8,59.9,52.9,79,64,47,29.92,29.83,4,2,10,0.00
2012-4-23,75.0,64.9,52.2,62.5,56.5,51.3,100,75,58,29.94,29.80,4,1,8,0.00
2012-4-24,69.6,58.5,50.7,60.6,54.8,50.5,100,88,70,29.99,29.89,4,1,9,0.00
2012-4-25,58.3,55.2,51.8,58.0,54.7,51.4,100,98,96,29.96,29.72,2,0,4,0.43
2012-4-26,56.5,50.2,42.4,54.0,49.4,42.2,100,97,86,30.51,29.70,3,1,14,0.84
2012-4-27,63.0,51.4,38.3,53.1,45.1,38.0,100,81,57,30.08,30.02,4,1,14,0.00
2012-4-28,71.4,59.8,45.3,58.8,51.4,43.6,100,75,55,30.02,29.82,6,2,14,0.00
2012-4-29,76.8,65.6,54.1,60.7,52.1,42.1,85,62,49,29.89,29.80,4,1,8,0.00
2012-4-30,77.5,65.1,54.1,61.2,56.0,50.1,91,74,51,29.91,29.80,3,1,14,0.00
2012-5-1,69.3,59.8,49.6,60.0,53.9,48.8,100,82,58,29.83,29.78,3,1,10,0.00
2012-5-2,68.9,56.9,46.9,57.0,49.6,41.8,95,77,61,29.86,29.78,3,1,8,0.00
2012-5-3,54.9,50.9,47.5,53.4,45.7,35.7,100,83,59,30.72,29.82,4,1,8,0.00
2012-5-4,61.5,52.9,46.6,53.4,48.7,44.1,100,87,60,30.10,29.97,3,1,8,0.00
2012-5-5,68.7,58.8,43.7,50.3,41.9,25.2,94,56,24,30.10,29.97,10,4,21,0.00
2012-5-6,78.3,67.9,58.3,53.6,36.1,21.7,61,32,19,30.00,29.96,7,3,19,0.00
2012-5-7,79.2,70.1,61.0,55.0,41.0,26.3,60,36,22,29.99,29.92,7,3,15,0.00
2012-5-8,84.0,71.6,58.6,53.5,40.5,25.3,57,34,21,29.96,29.89,6,2,8,0.00
2012-5-9,83.3,70.6,59.9,59.8,51.3,44.6,71,52,30,29.93,29.83,4,1,8,0.00
2012-5-10,78.4,67.0,51.6,61.9,52.4,45.7,83,61,39,29.85,29.81,3,1,9,0.00
2012-5-11,80.8,69.8,59.5,58.5,47.7,35.0,65,46,29,29.94,29.82,4,1,11,0.00
2012-5-12,84.0,71.0,58.5,62.1,52.3,42.7,67,53,26,30.00,29.94,4,1,10,0.00
2012-5-13,81.7,69.0,58.1,65.2,55.2,44.1,75,62,47,29.99,29.91,2,1,6,0.00
2012-5-14,69.1,58.1,46.4,56.8,50.6,43.3,92,77,63,29.99,29.93,3,1,8,0.00
2012-5-15,75.9,62.5,47.5,61.1,55.0,47.2,100,78,56,29.95,29.91,3,1,8,0.00
2012-5-16,80.4,74.0,58.3,67.5,62.3,55.5,91,68,55,29.95,29.86,2,1,8,0.00
2012-5-17,73.6,64.4,55.0,58.1,54.1,50.9,88,70,52,29.86,29.74,3,1,8,0.00
2012-5-18,74.5,63.5,51.6,58.2,50.1,45.8,90,64,38,29.88,29.79,6,2,16,0.00
2012-5-19,79.3,66.2,52.5,57.8,50.3,44.8,76,58,34,29.93,29.84,3,1,8,0.00
2012-5-20,84.6,71.0,58.1,61.8,54.3,43.5,77,57,41,29.94,29.88,3,1,10,0.00
2012-5-21,80.1,68.6,57.2,62.7,55.3,47.0,85,65,34,30.00,29.89,2,1,8,0.00
2012-5-22,73.9,63.7,50.9,61.1,53.7,49.1,94,72,44,30.02,29.93,6,1,14,0.00
2012-5-23,70.5,60.3,48.6,53.2,47.8,41.9,95,66,38,29.93,29.81,6,2,20,0.00
2012-5-24,70.5,60.2,49.3,54.2,45.1,33.5,79,59,28,29.82,29.56,4,1,10,0.00
2012-5-25,60.1,49.1,40.1,45.7,41.2,35.6,100,75,56,29.72,29.53,5,1,12,0.00
2012-5-26,64.4,50.0,40.1,53.9,47.2,39.8,100,91,66,29.97,29.67,7,2,19,0.00
2012-5-27,68.5,56.9,45.3,57.0,50.4,44.5,99,81,56,30.04,29.95,4,1,13,0.00
2012-5-28,71.8,60.4,48.7,56.7,50.6,46.2,94,72,47,29.98,29.91,3,1,13,0.00
2012-5-29,76.1,64.0,50.7,59.3,53.4,46.6,87,70,51,29.99,29.89,3,1,11,0.00
2012-5-30,83.3,68.7,53.2,61.6,55.0,47.1,88,64,38,30.02,29.95,3,1,9,0.00
2012-5-31,88.0,73.6,58.6,65.0,60.3,53.5,85,65,45,29.99,29.85,3,1,7,0.00
2012-6-1,90.0,77.3,63.5,69.0,63.0,56.9,81,63,43,29.85,29.73,3,1,8,0.00
2012-6-2,82.9,73.8,62.4,68.0,62.9,57.6,85,70,53,29.86,29.75,3,1,8,0.00
2012-6-3,83.5,70.7,57.7,63.6,59.4,56.3,96,70,46,29.88,29.81,2,1,9,0.00
2012-6-4,63.9,55.8,53.1,56.5,54.2,52.8,100,95,76,29.91,29.82,4,1,7,0.00
2012-6-5,53.2,53.2,53.2,53.2,53.2,53.2,100,100,100,30.04,29.91,1,1,2,0.00
2012-6-6,53.2,53.2,53.2,53.2,53.2,53.2,100,100,100,29.96,29.91,1,1,2,0.00
2012-6-9,75.9,68.2,63.3,51.7,38.0,23.3,63,35,17,29.88,29.82,9,5,29,0.00
2012-6-10,82.6,70.5,52.9,54.6,41.6,21.6,60,36,20,29.89,29.81,5,2,14,0.00
2012-6-11,87.8,74.0,57.2,60.2,50.8,36.7,68,45,33,29.94,29.86,3,1,9,0.00
2012-6-12,87.6,75.1,63.1,63.1,55.4,49.0,67,52,31,29.93,29.84,3,1,8,0.00
2012-6-13,86.4,74.8,63.1,66.8,58.7,49.9,77,58,43,29.84,29.72,4,1,11,0.00
2012-6-14,86.7,74.9,63.0,65.4,60.0,54.8,78,61,40,29.75,29.71,3,1,11,0.00
2012-6-15,89.4,74.4,61.9,67.0,58.8,53.5,77,60,38,29.92,29.59,4,1,12,0.00
2012-6-16,95.4,83.4,67.3,65.4,58.2,44.5,73,44,28,29.86,29.80,5,2,12,0.00
2012-6-17,94.5,82.2,70.9,68.6,61.1,50.8,64,50,34,29.87,29.77,4,1,8,0.00
2012-6-18,86.9,73.7,59.0,60.1,55.6,47.7,81,55,35,29.85,29.76,3,1,10,0.00
2012-6-19,83.1,71.2,56.5,58.4,48.9,35.9,62,46,31,29.86,29.77,4,1,10,0.00
2012-6-20,88.5,75.0,61.0,60.5,51.7,39.0,65,47,23,29.83,29.78,4,1,11,0.00
2012-6-21,83.5,68.6,63.1,61.5,53.1,49.2,69,59,33,29.81,29.76,2,0,6,0.00
2012-6-30,76.6,70.5,65.7,62.3,61.5,60.7,85,74,60,29.87,29.84,1,0,4,0.00
2012-7-1,80.8,72.5,59.2,67.2,63.2,57.8,95,73,59,29.87,29.81,4,1,11,0.00
2012-7-2,86.2,73.1,60.1,68.0,62.7,57.6,94,72,48,29.82,29.77,3,1,8,0.00
2012-7-3,86.4,74.6,64.2,66.8,60.3,56.7,85,64,39,29.83,29.76,3,1,9,0.00
2012-7-4,87.8,75.5,62.8,65.4,58.3,53.1,76,57,32,29.80,29.75,3,1,8,0.00
2012-7-5,85.5,73.6,60.8,62.1,55.8,50.5,73,55,36,29.89,29.79,3,1,9,0.00
2012-7-6,87.3,74.7,59.0,63.4,56.4,51.7,79,55,34,29.94,26.87,3,1,8,0.00
2012-7-7,91.0,77.7,63.1,64.0,56.5,51.2,66,50,31,29.94,29.88,4,1,11,0.00
2012-7-8,92.5,79.1,67.1,64.2,55.8,48.3,64,47,26,29.94,28.42,4,2,13,0.00
2012-7-9,92.1,78.3,64.6,64.0,57.2,52.0,65,50,31,29.96,29.90,4,1,10,0.00
2012-7-10,95.7,79.9,64.4,62.5,54.3,45.9,66,44,22,29.91,29.81,3,1,8,0.00
2012-7-11,98.8,83.0,69.1,63.9,53.0,39.1,56,38,14,30.58,29.79,3,1,9,0.00
2012-7-12,99.1,84.6,71.1,64.7,57.1,49.3,60,40,24,29.82,29.76,4,1,8,0.00
2012-7-13,92.5,79.5,67.8,64.8,57.6,50.1,69,50,25,29.83,29.76,3,1,8,0.00
2012-7-14,87.6,75.3,61.9,63.7,56.3,50.3,68,53,33,29.87,29.78,4,1,7,0.00
2012-7-15,89.4,76.0,61.9,63.5,56.5,47.1,72,52,35,29.84,29.75,2,1,7,0.00
2012-7-16,77.7,66.9,61.2,58.6,55.3,52.1,74,67,50,29.77,29.72,4,1,6,0.00
2012-7-19,82.8,75.8,62.2,66.1,60.1,53.1,81,59,50,29.93,29.80,2,1,8,0.00
2012-7-20,87.6,73.5,57.7,65.0,57.8,53.8,91,62,34,29.98,29.90,5,1,11,0.00
2012-7-21,94.5,79.7,64.9,63.9,57.3,52.2,66,49,29,29.91,29.82,4,1,11,0.00
2012-7-22,97.3,89.4,73.9,65.0,62.1,57.6,65,41,33,29.87,29.80,5,2,11,0.00
2012-7-23,79.7,75.9,71.2,66.8,62.5,59.7,72,63,54,29.88,29.81,7,3,11,0.00
2012-7-29,88.7,81.5,67.6,61.9,57.4,52.1,67,45,29,29.92,29.86,3,1,8,0.00
2012-7-30,91.8,77.1,62.8,60.6,55.0,49.5,66,49,28,29.91,29.82,4,1,8,0.00
2012-7-31,93.4,77.3,65.3,61.4,55.4,48.9,63,48,29,29.93,29.86,3,2,9,0.00
2012-8-1,94.3,79.8,66.7,61.4,53.4,47.9,64,42,24,29.99,29.91,4,2,8,0.00
2012-8-2,95.7,83.6,67.3,59.2,54.7,47.5,54,39,26,29.93,29.83,4,1,7,0.00
2012-8-21,88.2,77.3,66.4,60.3,56.3,51.1,63,50,28,29.82,29.78,2,0,2,0.00
2012-8-22,89.8,77.1,64.0,61.0,53.9,47.1,64,46,28,29.84,29.80,4,1,6,0.00
2012-9-10,86.7,78.9,64.9,59.8,55.1,51.8,66,45,35,29.86,29.78,8,2,8,0.00
2012-9-11,86.9,73.4,61.7,60.6,54.8,51.3,70,54,35,29.90,29.79,10,2,10,0.00
2012-9-12,87.1,73.3,60.8,61.3,55.5,49.8,68,55,38,30.00,29.89,11,2,11,0.00
2012-9-13,93.6,77.3,61.5,62.8,54.4,44.0,66,46,29,30.06,29.98,12,2,12,0.00
2012-9-14,91.8,77.7,69.4,62.6,56.3,51.2,61,48,34,30.03,29.96,8,2,8,0.00
2012-9-15,90.5,76.7,64.9,61.1,53.0,46.9,59,45,27,30.04,29.96,8,2,8,0.00
2012-9-16,90.3,76.2,64.2,55.6,49.6,44.3,51,40,27,29.99,29.93,8,2,8,0.00
2012-9-17,85.3,73.9,62.2,58.2,51.0,44.3,60,45,33,29.95,29.90,8,2,8,0.00
2012-9-18,86.9,73.2,61.7,60.1,52.0,42.9,62,49,26,30.00,29.94,11,2,11,0.00
2012-9-19,84.0,68.3,62.2,59.2,51.0,47.1,63,55,41,31.49,29.97,7,2,7,0.00
2012-10-1,99.0,84.6,71.2,62.5,54.2,49.4,49,37,19,29.87,29.75,6,2,6,0.00
2012-10-2,102.2,86.5,73.0,64.2,56.4,48.7,50,37,19,29.81,29.75,6,3,6,0.00
2012-10-3,99.7,87.2,75.4,68.5,58.9,48.8,52,40,23,29.85,29.79,7,2,7,0.00
2012-10-4,101.1,88.0,76.3,69.5,62.2,57.8,54,43,29,29.85,29.78,7,3,7,0.00
2012-10-5,98.1,85.8,75.0,68.5,63.9,59.4,61,49,35,29.81,29.74,5,2,5,0.00
2012-10-6,95.5,84.0,74.7,69.0,64.8,61.4,67,54,37,29.83,29.76,7,2,7,0.00
2012-10-7,77.5,69.0,54.7,64.4,57.1,51.4,89,67,48,29.92,29.84,10,2,10,0.00
2012-10-8,69.6,57.4,46.9,56.3,50.8,46.3,100,80,59,29.95,29.88,3,1,7,0.00
2012-10-9,68.9,57.3,47.5,52.1,48.8,45.7,95,75,53,29.94,29.87,4,1,8,0.00
2012-10-10,69.3,59.7,49.8,53.1,49.4,45.0,85,70,54,29.89,29.81,4,1,10,0.00
2012-10-11,65.3,56.6,49.8,54.1,50.5,45.7,100,81,65,29.89,29.76,3,1,8,0.00
2012-10-12,58.1,52.2,48.4,53.3,50.4,48.1,100,94,84,30.13,29.88,2,0,5,0.00
2012-10-13,66.2,55.2,43.7,55.6,50.4,43.5,100,85,67,30.19,30.10,4,1,10,0.00
2012-10-14,72.7,60.4,50.5,58.9,54.0,48.7,96,81,61,30.15,30.02,2,1,9,0.00
2012-10-15,77.2,65.3,54.3,59.3,54.7,48.3,90,70,49,30.04,29.93,5,1,12,0.00
2012-10-16,63.7,61.9,60.6,55.0,54.0,53.0,77,75,72,29.95,29.93,2,1,4,0.00
2012-10-19,75.7,67.2,58.6,60.7,56.1,52.5,82,68,56,29.94,29.85,2,1,6,0.00
2012-10-20,77.5,60.7,49.8,58.2,52.7,45.0,95,76,51,29.91,29.73,3,1,8,0.00
2012-10-21,59.5,52.4,46.8,52.0,47.1,39.9,100,83,64,31.24,29.72,4,1,7,0.00
2012-10-22,48.2,43.9,42.1,45.4,43.3,41.3,100,98,78,29.77,29.68,4,2,18,0.00
2012-10-23,51.1,45.3,38.3,49.4,42.8,38.0,100,91,74,29.95,29.90,2,1,5,0.00
2012-10-24,50.0,43.9,38.5,49.8,43.6,38.0,100,99,96,30.11,29.92,2,0,5,0.00
2012-10-25,77.5,53.0,43.3,58.0,46.9,39.1,100,81,48,30.18,29.87,8,2,16,0.33
2012-10-26,68.5,55.5,44.2,51.7,44.1,36.1,85,66,48,30.13,30.03,4,1,8,0.00
2012-10-27,71.9,59.9,51.4,56.6,48.8,45.1,84,68,41,30.04,29.89,3,1,10,0.00
2012-10-28,72.3,60.7,52.1,50.8,45.0,39.1,73,57,39,30.01,29.93,2,0,5,0.00
2012-10-29,73.2,61.3,52.2,48.5,43.5,36.8,67,53,32,30.08,30.00,2,0,5,0.00
2012-10-30,72.3,61.3,52.7,49.2,43.9,37.3,70,54,38,30.04,29.92,2,0,6,0.00
2012-10-31,59.4,53.4,49.0,50.7,46.6,40.3,96,78,62,29.99,29.89,2,0,5,0.20
2012-11-1,59.3,53.0,49.3,55.7,51.0,48.1,100,93,81,30.02,29.96,1,0,4,0.71
2012-11-2,62.8,53.3,46.1,51.8,46.9,40.3,96,80,55,30.05,29.99,2,0,6,0.00
2012-11-3,67.1,55.6,46.9,52.4,46.8,41.3,94,74,40,30.14,30.04,2,0,6,0.00
2012-11-4,68.8,58.3,48.4,54.2,48.3,41.6,89,71,46,30.19,30.13,2,0,6,0.00
2012-11-5,74.4,62.0,50.8,55.7,47.3,38.3,76,59,41,30.17,30.05,1,0,4,0.00
2012-11-6,76.7,64.4,55.3,52.9,44.1,38.3,65,49,29,30.08,29.98,2,0,5,0.00
2012-11-7,70.5,60.9,52.0,46.8,42.1,33.6,79,52,35,30.00,29.80,2,0,5,0.00
2012-11-8,53.5,44.1,37.6,47.2,39.9,35.0,97,86,64,29.85,29.75,2,0,8,0.21
2012-11-9,40.7,36.8,34.5,39.4,35.6,33.2,97,96,91,29.96,29.84,1,0,4,0.09
2012-11-10,42.0,36.7,32.8,39.8,34.9,30.1,100,93,81,30.27,29.95,2,0,6,0.13
2012-11-11,48.8,38.9,30.8,33.3,29.8,25.0,90,71,44,30.41,30.27,2,0,6,0.00
2012-11-12,55.2,44.9,35.6,38.0,33.2,28.0,86,65,36,30.40,30.27,2,0,7,0.00
2012-11-13,62.6,51.7,38.9,45.9,38.3,27.0,77,61,46,30.28,30.10,3,0,6,0.00
2012-11-14,64.8,54.7,47.6,48.4,42.9,34.7,79,65,51,30.11,30.02,3,0,7,0.00
2012-11-15,65.0,53.4,45.5,43.0,33.7,26.3,79,49,26,30.03,29.94,3,0,5,0.00
2012-11-16,54.4,50.2,46.8,48.7,42.1,31.5,96,75,44,30.00,29.90,3,0,5,0.17
2012-11-17,51.9,49.9,47.8,51.4,49.2,47.3,100,98,96,29.96,29.84,3,0,11,1.98
2012-11-18,49.0,46.6,43.9,47.8,44.3,40.6,100,92,78,30.18,29.95,2,0,7,0.46
2012-11-19,56.4,49.7,43.8,46.9,43.7,39.8,94,80,62,30.25,30.15,3,0,5,0.01
2012-11-20,54.0,50.5,45.5,49.7,46.6,42.6,97,87,71,30.17,30.01,3,0,6,0.52
2012-11-21,51.6,48.5,43.1,51.1,47.8,41.8,100,99,94,30.18,30.03,1,0,7,1.05
2012-11-22,44.4,43.9,43.0,42.4,41.9,40.9,95,93,91,30.17,30.17,1,0,2,0.00
2012-11-24,63.6,56.4,47.0,47.4,42.8,34.0,86,62,35,30.16,30.01,1,0,4,0.00
2012-11-25,61.1,51.0,43.9,45.7,38.5,30.1,86,63,36,30.01,29.91,2,0,4,0.00
2012-11-26,60.5,50.1,42.1,46.1,38.1,31.0,83,64,45,30.08,29.95,1,0,4,0.00
2012-11-27,59.5,50.1,43.2,44.9,37.3,29.9,81,62,48,30.09,30.00,3,0,5,0.00
2012-11-28,52.0,48.7,46.4,49.3,44.8,35.6,97,87,54,30.03,29.85,5,1,18,0.70
2012-11-29,53.7,51.3,48.2,50.9,49.6,46.3,100,94,82,30.05,29.85,3,1,11,0.99
2012-11-30,52.1,51.2,50.1,51.6,50.7,49.6,100,100,97,29.99,29.75,4,1,21,4.00
2012-12-1,53.2,50.8,48.5,52.8,50.5,48.0,100,99,99,30.01,29.83,3,1,11,1.30
2012-12-2,53.2,49.6,41.7,52.8,49.2,40.4,100,99,95,30.09,29.62,4,1,18,1.85
2012-12-3,55.8,47.9,40.1,51.0,45.8,39.1,100,93,81,30.19,30.06,5,0,8,0.00
2012-12-4,52.0,49.6,44.1,50.3,47.0,41.4,97,91,80,30.23,30.15,8,2,13,0.39
2012-12-5,53.4,49.8,43.7,53.1,49.3,42.1,100,99,93,30.19,30.09,8,1,12,0.95
2012-12-6,52.5,49.6,42.7,51.7,49.1,42.1,100,99,95,30.09,30.02,2,0,6,0.00
2012-12-7,59.6,47.3,39.9,50.4,40.0,30.6,97,77,49,30.11,30.05,2,0,5,0.00
2012-12-8,54.0,44.6,37.2,43.6,34.7,24.5,95,69,46,30.08,30.00,1,0,3,0.00
2012-12-9,59.5,51.0,40.8,46.6,38.2,30.8,82,62,45,30.17,30.05,3,1,8,0.00
2012-12-10,59.9,49.2,39.4,48.4,41.1,32.8,94,74,50,30.21,30.09,1,0,7,0.00
2012-12-11,57.2,46.7,38.8,44.5,37.8,30.0,96,72,48,30.09,29.76,2,0,8,0.07
2012-12-12,42.6,40.2,35.3,41.3,38.6,33.8,100,95,87,29.89,29.76,1,0,7,0.03
2012-12-13,43.9,37.2,33.1,37.0,33.9,29.1,97,88,69,29.91,29.82,2,0,8,0.00
2012-12-14,43.0,35.7,29.1,35.0,30.4,26.3,96,81,66,30.03,29.82,2,0,6,0.00
2012-12-15,40.2,34.7,29.7,33.9,30.1,24.8,95,83,69,30.10,30.02,2,0,5,0.01
2012-12-16,45.1,40.6,36.1,42.7,37.0,33.5,100,87,69,30.14,30.00,3,1,10,0.20
2012-12-17,47.2,44.1,39.7,46.7,43.6,38.8,100,100,96,30.02,29.93,3,1,12,0.73
2012-12-18,39.9,34.7,29.8,38.9,30.8,21.3,100,87,51,30.15,29.90,6,1,14,0.01
2012-12-19,42.5,33.3,27.0,27.2,21.5,13.2,86,64,32,30.31,30.15,3,0,8,0.00
2012-12-20,49.1,39.5,27.9,25.9,21.7,15.5,86,52,31,30.28,30.03,2,1,10,0.00
2012-12-21,45.4,41.5,35.3,40.8,28.7,15.4,97,66,31,30.03,29.86,8,1,16,0.49
2012-12-22,44.3,41.0,38.7,43.3,40.3,37.9,100,98,95,30.08,29.79,3,1,13,1.20
2012-12-23,43.0,41.2,39.2,42.7,40.7,38.3,100,100,97,30.08,29.85,4,1,18,1.39
2012-12-24,45.6,40.7,37.1,42.6,38.2,31.5,100,92,69,30.19,29.96,3,0,6,0.04
2012-12-25,42.1,38.2,35.9,38.6,34.0,30.1,97,85,71,30.14,29.86,4,1,11,0.74
2012-12-26,40.7,38.3,33.9,40.4,37.9,33.1,100,100,97,30.07,29.80,1,0,7,0.29
2012-12-27,43.9,36.6,31.2,39.4,33.9,28.3,100,90,76,30.16,30.06,3,1,7,0.00
2012-12-28,41.8,37.2,32.0,36.0,31.1,26.4,86,79,70,30.20,30.07,2,0,7,0.00
2012-12-29,47.1,40.5,35.4,35.5,31.7,26.7,91,72,47,30.07,29.99,2,0,7,0.00
2012-12-30,45.9,38.4,32.1,33.6,26.0,17.3,94,64,41,30.16,30.02,5,1,15,0.01
2012-12-31,44.1,36.5,29.9,34.1,24.9,15.8,93,65,44,30.28,30.15,7,1,13,0.00
2013-1-1,45.4,37.4,29.5,33.4,28.5,21.8,93,71,52,30.28,30.21,3,0,7,0.00